Location: Dodge City Community College Clyde Tombaugh Astronomy Center
(37.7756°N, 100.0412°W)
Time: 12:28:29
(UTC+00:00)

Tiangong - Visible Passes

Search period start: 01 December 2022 00:00
Search period end: 11 December 2022 00:00
Orbit: 385 x 393 km, 41.5° (Epoch: 01 December)

Date Brightness Start Highest point End Pass type
(mag) Time Alt. Az. Time Alt. Az. Time Alt. Az.
01 Dec -2.2 00:45:14 10° WSW 00:48:25 83° SSE 00:49:05 53° E visible
01 Dec -1.6 23:47:11 10° SW 23:50:16 50° SSE 23:53:23 10° ENE visible
02 Dec -0.2 01:24:08 10° W 01:25:59 29° WNW 01:25:59 29° WNW visible
03 Dec -1.9 00:25:47 10° W 00:28:56 63° NNW 00:30:31 26° ENE visible
04 Dec -1.1 01:04:43 10° WNW 01:07:19 38° NNW 01:07:19 38° NNW visible
05 Dec -1.6 00:06:15 10° W 00:09:20 46° N 00:11:45 15° ENE visible
05 Dec 0.9 01:43:29 10° WNW 01:44:03 14° WNW 01:44:03 14° WNW visible
06 Dec -1.5 00:45:04 10° WNW 00:48:06 40° N 00:48:29 38° NNE visible
07 Dec -0.1 01:23:36 10° WNW 01:25:13 26° WNW 01:25:13 26° WNW visible
08 Dec -1.7 00:25:09 10° WNW 00:28:14 47° N 00:29:41 26° ENE visible
09 Dec -2.0 01:03:32 10° WNW 01:06:30 75° W 01:06:30 75° W visible
10 Dec -2.1 00:04:59 10° WNW 00:08:09 64° NNE 00:11:07 11° E visible
10 Dec 0.7 01:42:08 10° W 01:43:26 19° WSW 01:43:26 19° WSW visible
